DW3072 Weather Reports


Display with metric or nautical units.
time (UTC)temp
F
wind
direction
speed
MPH
gust
MPH
rain 1hr
in
rain 24hr
in
rain mn
in
humidity
%
barometer
mb
20260904025030 73 27 0.0 0.0 0.04 0.91 0.68 96 1011.5
20260904023541 73 27 0.0 1.0 0.04 0.91 0.68 96 1011.6
20260904022052 74 250 0.0 1.0 0.04 0.91 0.68 95 1011.7
20260904020559 74 250 0.0 2.0 0.03 0.90 0.67 95 1012.0
20260904015100 74 231 0.0 0.0 0.00 0.87 0.64 95 1012.7
20260904013526 74 231 0.0 0.0 0.00 0.87 0.64 95 1012.3
20260904012038 74 231 0.0 0.0 0.00 0.87 0.64 94 1012.3
20260904010529 74 231 0.0 1.0 0.00 0.87 0.64 95 1012.4
20260904005036 74 231 0.0 0.0 0.00 0.87 0.64 94 1012.6
20260904003526 74 231 0.0 0.0 0.00 0.87 0.64 93 1012.4
20260904002049 75 231 0.0 0.0 0.00 0.87 0.64 93 1012.3
20260904000600 75 231 0.0 0.0 0.00 0.87 0.64 92 1012.2
20260903235044 76 231 0.0 0.0 0.00 0.87 0.64 91 1011.6
20260903233533 76 231 0.0 0.0 0.00 0.87 0.64 90 1011.9
20260903232046 77 231 0.0 0.0 0.00 0.87 0.64 89 1011.9
20260903230601 78 231 0.0 0.0 0.00 0.87 0.64 89 1012.3
20260903225044 79 231 0.0 0.0 0.00 0.87 0.64 88 1011.7
20260903223531 79 231 0.0 0.0 0.00 0.87 0.64 87 1011.6
20260903222037 80 231 0.0 0.0 0.00 0.87 0.64 86 1011.6
20260903220549 80 231 0.0 0.0 0.00 0.87 0.64 86 1011.6
20260903215115 80 231 0.0 0.0 0.00 0.87 0.64 84 1011.5
20260903213604 80 231 0.0 0.0 0.00 0.87 0.64 82 1011.3
20260903212057 81 231 0.0 0.0 0.00 0.87 0.64 81 1011.3
20260903210525 82 231 0.0 2.0 0.00 0.87 0.64 77 1011.3
20260903205031 84 152 0.0 5.0 0.00 0.87 0.64 71 1011.3
20260903203542 84 293 1.0 5.0 0.00 0.87 0.64 70 1011.3
20260903202030 84 178 2.0 5.0 0.00 0.87 0.64 74 1011.6
20260903200543 84 189 1.0 5.0 0.00 0.87 0.64 70 1011.7
20260903195044 84 179 1.0 4.0 0.00 0.87 0.64 75 1011.6
20260903193537 84 121 1.0 4.0 0.00 0.87 0.64 72 1011.7
20260903192030 84 173 0.0 3.0 0.00 0.87 0.64 75 1011.8
20260903190545 84 347 0.0 7.0 0.00 0.87 0.64 76 1011.9
20260903185054 84 127 2.0 5.0 0.00 0.87 0.64 73 1012.0
20260903183540 83 350 1.0 4.0 0.00 0.87 0.64 75 1012.4
20260903182034 83 83 1.0 5.0 0.00 0.87 0.64 77 1012.4
20260903180529 83 332 2.0 6.0 0.00 0.87 0.64 75 1012.5
20260903175059 83 337 1.0 6.0 0.00 0.87 0.64 76 1012.7
20260903173541 82 106 1.0 3.0 0.00 0.87 0.64 77 1012.7
20260903172031 81 309 2.0 7.0 0.00 0.87 0.64 77 1012.9
20260903170543 81 50 0.0 7.0 0.00 0.87 0.64 82 1012.9
20260903165037 80 330 1.0 8.0 0.00 0.87 0.64 81 1013.1
20260903163545 79 218 0.0 4.0 0.00 0.87 0.64 86 1013.7
20260903162043 78 136 2.0 3.0 0.00 0.87 0.64 88 1013.8
20260903160548 77 285 3.0 6.0 0.00 0.87 0.64 88 1014.0
20260903155028 76 298 1.0 5.0 0.00 0.87 0.64 91 1014.0
20260903153538 75 235 1.0 5.0 0.00 0.87 0.64 91 1014.2
20260903152047 75 296 2.0 3.0 0.00 0.87 0.64 92 1014.4
20260903150559 74 312 2.0 4.0 0.00 0.87 0.64 94 1014.8
20260903145100 73 21 1.0 4.0 0.00 0.87 0.64 95 1014.7
20260903143528 72 259 2.0 7.0 0.00 0.87 0.64 96 1014.8
20260903142036 72 253 1.0 2.0 0.00 0.87 0.64 96 1014.7
20260903140544 71 344 1.0 4.0 0.00 0.87 0.64 96 1014.5
20260903135026 71 114 0.0 3.0 0.00 0.87 0.64 96 1014.4
20260903133604 70 329 0.0 4.0 0.00 0.87 0.64 96 1014.4
20260903132030 70 231 1.0 4.0 0.00 0.87 0.64 96 1014.6
20260903130539 69 277 2.0 5.0 0.00 0.87 0.64 96 1014.7
20260903125101 69 344 2.0 5.0 0.00 0.87 0.64 96 1014.5
20260903123528 70 270 1.0 3.0 0.00 0.87 0.64 96 1014.2
20260903122035 69 314 1.0 3.0 0.00 0.87 0.64 97 1014.2
20260903120544 68 338 0.0 1.0 0.00 0.87 0.64 96 1014.3
20260903115043 68 354 0.0 1.0 0.00 0.87 0.64 97 1014.2
20260903113531 68 23 1.0 3.0 0.00 0.87 0.64 97 1013.8
20260903112037 67 354 2.0 3.0 0.00 0.87 0.64 97 1013.8
20260903110529 67 335 0.0 1.0 0.00 0.87 0.64 97 1014.5
20260903105030 67 335 0.0 0.0 0.00 0.87 0.64 97 1014.9
20260903103541 67 319 0.0 0.0 0.00 0.87 0.64 97 1015.5
20260903102030 67 322 0.0 0.0 0.00 0.87 0.64 97 1015.1
20260903100539 67 322 0.0 0.0 0.00 0.87 0.64 97 1015.6
20260903095042 67 322 0.0 0.0 0.00 0.87 0.64 97 1015.5
20260903093549 67 286 1.0 3.0 0.00 0.87 0.64 97 1015.0
20260903092034 67 358 0.0 2.0 0.00 0.87 0.64 97 1014.4
20260903090545 67 12 0.0 2.0 0.00 0.87 0.64 97 1014.4
20260903085046 67 300 0.0 0.0 0.03 0.87 0.64 97 1014.8
20260903083552 67 300 0.0 5.0 0.09 0.87 0.64 97 1014.2
20260903082102 67 302 1.0 4.0 0.16 0.87 0.64 97 1014.6
20260903080530 67 312 1.0 3.0 0.19 0.87 0.64 97 1014.7
20260903075034 67 292 3.0 7.0 0.15 0.83 0.60 97 1014.4
20260903073543 67 337 1.0 3.0 0.11 0.78 0.55 97 1014.6
20260903072030 67 265 0.0 1.0 0.06 0.71 0.48 97 1017.0
20260903070536 67 265 0.0 1.0 0.05 0.68 0.45 97 1016.8
20260903065036 67 283 0.0 2.0 0.08 0.68 0.45 97 1015.4
20260903063525 67 287 1.0 3.0 0.12 0.67 0.44 97 1015.1
20260903062105 67 360 0.0 2.0 0.14 0.65 0.42 97 1015.2
20260903060552 67 280 2.0 3.0 0.17 0.63 0.40 97 1015.8
20260903055027 67 287 1.0 2.0 0.20 0.59 0.36 97 1016.4
20260903053534 67 290 1.0 2.0 0.19 0.55 0.32 97 1016.5
20260903052040 68 277 0.0 1.0 0.19 0.50 0.27 97 1017.0
20260903050532 68 283 0.0 3.0 0.21 0.45 0.22 96 1016.7
20260903045036 68 344 0.0 1.0 0.21 0.39 0.16 96 1017.1
20260903043546 68 279 0.0 3.0 0.31 0.36 0.13 96 1016.6
20260903042034 68 240 0.0 2.0 0.29 0.31 0.08 96 1017.3
20260903040548 68 173 0.0 2.0 0.24 0.24 0.01 96 1018.5
20260903035052 68 150 1.0 5.0 0.18 0.18 0.18 96 1019.1
20260903033543 68 272 0.0 2.0 0.05 0.05 0.05 96 1018.7
20260903032041 68 311 1.0 4.0 0.02 0.02 0.02 96 1018.2
20260903030535 68 292 1.0 7.0 0.00 0.00 0.00 96 1017.3